Seattle Boeing, WA
on Sunday, February 24, 2013

Sunday
Previous Day Next Day
Daily Summary
 ActualAverage (KSEA)Record (KSEA)
Temperature
Mean Temperature °F 44°F  
Max Temperature 48°F 51°F 62°F (1949)
Min Temperature 42°F 37°F 24°F (2011)
Degree Days
Heating Degree Days 20 21  
Month to date heating degree days 522  
Since 1 July heating degree days 3171  
Cooling Degree Days 0 0  
Month to date cooling degree days 0  
Year to date cooling degree days 0  
Moisture
Dew Point 34°F   
Average Humidity 63    
Maximum Humidity 76    
Minimum Humidity 50    
Precipitation
Precipitation 0.02 in 0.12 in 1.55 in (1961)
Month to date precipitation 3.00  
Year to date precipitation 8.57  
Snow
Snow 0.00 in in 0.70 in (1994)
Month to date snowfall  
Since 1 July snowfall  
Snow Depth in   
Wind
Wind Speed 10 mph   
Max Wind Speed 21 mph   
Max Gust Speed 31 mph   
Visibility 10 miles   
Events Rain   

Key: T is trace of precipitation, MM is missing value
Source: NWS Daily Summary
Time(PST)TemperatureDew PointHumidity Pressure Visibility Wind DirectionWind SpeedGust SpeedPrecipitationEvents Conditions
12:18 AM 42.8°F 33.8°F 70% 30.38 in 10.0 miles SE 9.2 mph - N/A   Overcast
12:53 AM 42.1°F 33.1°F 70% 30.38 in 10.0 miles SSE 10.4 mph - N/A   Overcast
1:53 AM 42.1°F 34.0°F 73% 30.38 in 10.0 miles SSE 9.2 mph - N/A   Overcast
2:42 AM 42.8°F 33.8°F 70% 30.38 in 10.0 miles SSE 9.2 mph - N/A   Overcast
2:53 AM 42.1°F 34.0°F 73% 30.38 in 10.0 miles South 9.2 mph - N/A   Overcast
3:53 AM 42.8°F 35.6°F 76% 30.38 in 10.0 miles SSE 8.1 mph - N/A   Overcast
4:53 AM 42.1°F 34.0°F 73% 30.37 in 10.0 miles SSE 10.4 mph - N/A   Overcast
5:53 AM 43.0°F 33.1°F 68% 30.36 in 10.0 miles SSE 9.2 mph - N/A   Overcast
6:53 AM 43.0°F 33.1°F 68% 30.35 in 10.0 miles SSE 11.5 mph - N/A   Overcast
7:53 AM 43.0°F 33.1°F 68% 30.35 in 10.0 miles SSE 6.9 mph - N/A   Overcast
8:53 AM 45.0°F 33.1°F 63% 30.35 in 10.0 miles SSE 10.4 mph - N/A   Overcast
9:53 AM 48.0°F 34.0°F 58% 30.34 in 10.0 miles South 10.4 mph - N/A   Mostly Cloudy
10:53 AM 48.0°F 33.1°F 56% 30.32 in 10.0 miles South 18.4 mph 23.0 mph N/A   Overcast
11:53 AM 48.0°F 34.0°F 58% 30.31 in 10.0 miles South 15.0 mph 25.3 mph N/A   Overcast
12:53 PM 48.9°F 35.1°F 59% 30.28 in 10.0 miles South 11.5 mph 19.6 mph N/A   Overcast
1:53 PM 48.0°F 33.1°F 56% 30.26 in 10.0 miles South 16.1 mph 21.9 mph N/A   Overcast
2:53 PM 48.9°F 34.0°F 56% 30.23 in 10.0 miles South 8.1 mph - N/A   Overcast
3:53 PM 48.9°F 34.0°F 56% 30.21 in 10.0 miles South 9.2 mph 17.3 mph N/A   Overcast
4:53 PM 48.9°F 34.0°F 56% 30.18 in 10.0 miles South 9.2 mph - N/A   Overcast
5:53 PM 48.9°F 34.0°F 56% 30.14 in 10.0 miles SSE 13.8 mph - N/A   Overcast
6:53 PM 48.9°F 33.1°F 54% 30.12 in 10.0 miles SSE 8.1 mph 17.3 mph N/A   Overcast
7:53 PM 48.0°F 32.0°F 54% 30.09 in 10.0 miles SSE 8.1 mph - N/A   Overcast
8:53 PM 48.9°F 30.9°F 50% 30.06 in 10.0 miles SSE 8.1 mph - N/A   Overcast
9:53 PM 46.0°F 35.1°F 66% 30.03 in 10.0 miles SSE 6.9 mph - 0.00 in Rain Light Rain
10:53 PM 46.9°F 34.0°F 61% 29.99 in 10.0 miles SE 10.4 mph - 0.01 in   Overcast
11:53 PM 46.9°F 34.0°F 61% 29.96 in 9.0 miles South 20.7 mph 31.1 mph 0.01 in Rain Light Rain
Moon Phase
Feb. 24 Feb. 25 Mar. 04 Mar. 11 Mar. 19
Sunrise:06:58 AM (PST) Moon Rise:05:04 PM (PST)
Sunset:05:47 PM (PST) Moon Set:05:59 AM (PST)

Copyright © 2014 The Weather Underground, Inc.